Volver al catálogo

TIANYAN-26

ActivoMilitarSSO
NORAD 65263·PAYLOAD·🇨🇳 China
Este nombre de satélite aún no ha sido confirmado por fuentes oficiales.

Lanzado Aug 19, 2025 desde Jiuquan Satellite Launch Center

Loading…

Próximos Pases (próximas 24 horas)

TLE

ActualizadoSource: Space-Track

Época: Sep 14, 2026, 22:46 UTC

1 65263U 25180E   26257.94916652  .00002719  00000-0  14363-3 0  9991
2 65263  97.4785  23.7136 0001619  88.6536 271.4882 15.16352126 59322

Sigue TIANYAN-26 en tiempo real con AllMySat

Download on the App Store